| time (UTC) | temp F | wind direction | speed MPH | gust MPH | rain 1hr in | rain 24hr in | rain mn in | humidity % | barometer mb |
| 20260506223605 | 56 | 67 | 1.0 | 3.0 | 0.00 | 0.00 | 0.00 | 89 | |
| 20260506223043 | 56 | 67 | 1.0 | 3.0 | 0.00 | 0.00 | 0.00 | 89 | 1014.0 |
| 20260506222705 | 57 | 67 | 2.0 | 3.0 | 0.00 | 0.00 | 0.00 | 89 | |
| 20260506221805 | 57 | 67 | 2.0 | 3.0 | 0.00 | 0.00 | 0.00 | 89 | |
| 20260506221518 | 56 | 67 | 1.0 | 3.0 | 0.00 | 0.00 | 0.00 | 89 | 1013.8 |
| 20260506220905 | 57 | 67 | 2.0 | 3.0 | 0.00 | 0.00 | 0.00 | 88 | |
| 20260506220005 | 58 | 67 | 0.0 | 2.0 | 0.00 | 0.00 | 0.00 | 88 | |
| 20260506215406 | 58 | 67 | 0.0 | 2.0 | 0.00 | 0.00 | 0.00 | 88 | |
| 20260506214608 | 57 | 67 | 0.0 | 2.0 | 0.00 | 0.00 | 0.00 | 88 | 1013.6 |
| 20260506214505 | 58 | 67 | 1.0 | 2.0 | 0.00 | 0.00 | 0.00 | 87 | |
| 20260506213605 | 58 | 67 | 1.0 | 2.0 | 0.00 | 0.00 | 0.00 | 87 | |
| 20260506213055 | 58 | 67 | 1.0 | 2.0 | 0.00 | 0.00 | 0.00 | 87 | 1013.8 |
| 20260506212705 | 59 | 67 | 0.0 | 2.0 | 0.00 | 0.00 | 0.00 | 87 | |
| 20260506211805 | 59 | 67 | 0.0 | 2.0 | 0.00 | 0.00 | 0.00 | 87 | |
| 20260506211539 | 59 | 67 | 0.0 | 2.0 | 0.00 | 0.00 | 0.00 | 87 | 1014.0 |
| 20260506210906 | 60 | 67 | 2.0 | 2.0 | 0.00 | 0.00 | 0.00 | 87 | |
| 20260506210016 | 59 | 67 | 0.0 | 2.0 | 0.00 | 0.00 | 0.00 | 87 | 1014.1 |
| 20260506210005 | 60 | 0 | 0.0 | 0.0 | 0.00 | 0.00 | 0.00 | 86 | |
| 20260506205405 | 60 | 0 | 0.0 | 0.0 | 0.00 | 0.00 | 0.00 | 86 | |
| 20260506204616 | 60 | 67 | 0.0 | 0.0 | 0.00 | 0.00 | 0.00 | 86 | 1014.0 |
| 20260506204505 | 60 | 67 | 3.0 | 4.0 | 0.00 | 0.00 | 0.00 | 86 | |
| 20260506203605 | 60 | 67 | 3.0 | 4.0 | 0.00 | 0.00 | 0.00 | 86 | |
| 20260506203054 | 60 | 67 | 2.0 | 4.0 | 0.00 | 0.00 | 0.00 | 86 | 1013.9 |
| 20260506202705 | 61 | 67 | 3.0 | 4.0 | 0.00 | 0.00 | 0.00 | 85 | |
| 20260506201805 | 61 | 67 | 3.0 | 4.0 | 0.00 | 0.00 | 0.00 | 85 | |
| 20260506201523 | 60 | 67 | 3.0 | 4.0 | 0.00 | 0.00 | 0.00 | 85 | 1013.9 |
| 20260506200905 | 62 | 67 | 3.0 | 4.0 | 0.00 | 0.00 | 0.00 | 85 | |
| 20260506200007 | 61 | 67 | 2.0 | 4.0 | 0.00 | 0.00 | 0.00 | 85 | 1013.7 |
| 20260506200005 | 62 | 67 | 5.0 | 5.0 | 0.00 | 0.00 | 0.00 | 83 | |
| 20260506195405 | 62 | 67 | 5.0 | 5.0 | 0.00 | 0.00 | 0.00 | 83 | |
| 20260506194605 | 62 | 67 | 3.0 | 5.0 | 0.00 | 0.00 | 0.00 | 83 | 1013.6 |
| 20260506194505 | 63 | 67 | 2.0 | 4.0 | 0.00 | 0.00 | 0.00 | 82 | |
| 20260506193605 | 63 | 67 | 2.0 | 4.0 | 0.00 | 0.00 | 0.00 | 82 | |
| 20260506193046 | 63 | 67 | 2.0 | 4.0 | 0.00 | 0.00 | 0.00 | 82 | 1013.3 |
| 20260506192705 | 64 | 67 | 2.0 | 5.0 | 0.00 | 0.00 | 0.00 | 80 | |
| 20260506191806 | 64 | 67 | 2.0 | 5.0 | 0.00 | 0.00 | 0.00 | 80 | |
| 20260506191511 | 63 | 67 | 2.0 | 5.0 | 0.00 | 0.00 | 0.00 | 80 | 1013.1 |
| 20260506190906 | 64 | 247 | 3.0 | 10.0 | 0.00 | 0.00 | 0.00 | 79 | |
| 20260506190006 | 65 | 315 | 3.0 | 8.0 | 0.00 | 0.00 | 0.00 | 75 | |
| 20260506185405 | 65 | 315 | 3.0 | 8.0 | 0.00 | 0.00 | 0.00 | 75 | |
| 20260506184514 | 65 | 110 | 3.0 | 8.0 | 0.00 | 0.00 | 0.00 | 75 | 1012.7 |
| 20260506184506 | 66 | 135 | 2.0 | 8.0 | 0.00 | 0.00 | 0.00 | 73 | |
| 20260506183606 | 66 | 135 | 2.0 | 8.0 | 0.00 | 0.00 | 0.00 | 73 | |
| 20260506183104 | 66 | 102 | 2.0 | 8.0 | 0.00 | 0.00 | 0.00 | 73 | 1012.7 |
| 20260506182726 | 67 | 112 | 4.0 | 10.0 | 0.00 | 0.00 | 0.00 | 72 | |
| 20260506181827 | 67 | 112 | 4.0 | 10.0 | 0.00 | 0.00 | 0.00 | 72 | |
| 20260506181555 | 66 | 117 | 6.0 | 10.0 | 0.00 | 0.00 | 0.00 | 72 | 1012.7 |
| 20260506180905 | 68 | 360 | 7.0 | 10.0 | 0.00 | 0.00 | 0.00 | 69 | |
| 20260506180026 | 68 | 90 | 7.0 | 11.0 | 0.00 | 0.00 | 0.00 | 67 | |
| 20260506180022 | 67 | 112 | 7.0 | 10.0 | 0.00 | 0.00 | 0.00 | 69 | 1012.6 |
| 20260506175405 | 68 | 90 | 7.0 | 11.0 | 0.00 | 0.00 | 0.00 | 67 | |
| 20260506174505 | 68 | 315 | 8.0 | 12.0 | 0.00 | 0.00 | 0.00 | 67 | |
| 20260506173605 | 68 | 315 | 8.0 | 12.0 | 0.00 | 0.00 | 0.00 | 67 | |
| 20260506173130 | 67 | 94 | 7.0 | 12.0 | 0.00 | 0.00 | 0.00 | 67 | 1012.5 |
| 20260506172705 | 69 | 22 | 7.0 | 11.0 | 0.00 | 0.00 | 0.00 | 65 | |
| 20260506171827 | 69 | 22 | 7.0 | 11.0 | 0.00 | 0.00 | 0.00 | 65 | |
| 20260506171548 | 68 | 113 | 7.0 | 11.0 | 0.00 | 0.00 | 0.00 | 65 | 1012.7 |
| 20260506170905 | 71 | 270 | 5.0 | 14.0 | 0.00 | 0.00 | 0.00 | 61 | |
| 20260506170026 | 72 | 315 | 13.0 | 14.0 | 0.00 | 0.00 | 0.00 | 58 | |
| 20260506170007 | 70 | 140 | 8.0 | 14.0 | 0.00 | 0.00 | 0.00 | 61 | 1012.5 |
| 20260506165426 | 72 | 315 | 13.0 | 14.0 | 0.00 | 0.00 | 0.00 | 58 | |
| 20260506164608 | 71 | 126 | 10.0 | 14.0 | 0.00 | 0.00 | 0.00 | 58 | 1012.5 |
| 20260506164505 | 72 | 360 | 7.0 | 13.0 | 0.00 | 0.00 | 0.00 | 58 | |
| 20260506163605 | 72 | 360 | 7.0 | 13.0 | 0.00 | 0.00 | 0.00 | 58 | |
| 20260506163105 | 72 | 128 | 8.0 | 13.0 | 0.00 | 0.00 | 0.00 | 58 | 1012.4 |
| 20260506162705 | 72 | 157 | 8.0 | 14.0 | 0.00 | 0.00 | 0.00 | 55 | |
| 20260506161805 | 72 | 157 | 8.0 | 14.0 | 0.00 | 0.00 | 0.00 | 55 | |
| 20260506161538 | 72 | 119 | 8.0 | 14.0 | 0.00 | 0.00 | 0.00 | 55 | 1012.5 |
| 20260506160905 | 72 | 360 | 4.0 | 15.0 | 0.00 | 0.00 | 0.00 | 55 | |
| 20260506160011 | 72 | 128 | 8.0 | 15.0 | 0.00 | 0.00 | 0.00 | 55 | 1012.4 |
| 20260506160005 | 74 | 315 | 9.0 | 14.0 | 0.00 | 0.00 | 0.00 | 48 | |
| 20260506155405 | 74 | 315 | 9.0 | 14.0 | 0.00 | 0.00 | 0.00 | 48 | |
| 20260506154610 | 73 | 126 | 10.0 | 14.0 | 0.00 | 0.00 | 0.00 | 48 | 1012.3 |
| 20260506154506 | 72 | 315 | 10.0 | 15.0 | 0.00 | 0.00 | 0.00 | 51 | |
| 20260506153605 | 72 | 315 | 10.0 | 15.0 | 0.00 | 0.00 | 0.00 | 51 | |
| 20260506153058 | 72 | 142 | 9.0 | 15.0 | 0.00 | 0.00 | 0.00 | 51 | 1012.2 |
| 20260506152705 | 72 | 180 | 7.0 | 14.0 | 0.00 | 0.00 | 0.00 | 52 | |
| 20260506151806 | 72 | 180 | 7.0 | 14.0 | 0.00 | 0.00 | 0.00 | 52 | |
| 20260506151541 | 72 | 120 | 8.0 | 14.0 | 0.00 | 0.00 | 0.00 | 52 | 1012.3 |
| 20260506150905 | 72 | 112 | 7.0 | 14.0 | 0.00 | 0.00 | 0.00 | 53 | |
| 20260506150012 | 72 | 117 | 8.0 | 14.0 | 0.00 | 0.00 | 0.00 | 53 | 1012.3 |
| 20260506150005 | 75 | 225 | 4.0 | 17.0 | 0.00 | 0.00 | 0.00 | 49 | |
| 20260506145412 | 75 | 225 | 4.0 | 17.0 | 0.00 | 0.00 | 0.00 | 49 | |
| 20260506144613 | 74 | 106 | 7.0 | 17.0 | 0.00 | 0.00 | 0.00 | 49 | 1012.5 |
| 20260506144526 | 74 | 180 | 3.0 | 16.0 | 0.00 | 0.00 | 0.00 | 50 | |
| 20260506143606 | 74 | 180 | 3.0 | 16.0 | 0.00 | 0.00 | 0.00 | 50 | |
| 20260506143059 | 74 | 120 | 9.0 | 16.0 | 0.00 | 0.00 | 0.00 | 50 | 1012.4 |
| 20260506142705 | 72 | 247 | 11.0 | 14.0 | 0.00 | 0.00 | 0.00 | 55 | |
| 20260506141805 | 72 | 247 | 11.0 | 14.0 | 0.00 | 0.00 | 0.00 | 55 | |
| 20260506141531 | 72 | 91 | 7.0 | 14.0 | 0.00 | 0.00 | 0.00 | 55 | 1012.6 |
| 20260506140905 | 72 | 360 | 6.0 | 13.0 | 0.00 | 0.00 | 0.00 | 56 | |
| 20260506140027 | 74 | 247 | 13.0 | 14.0 | 0.00 | 0.00 | 0.00 | 51 | |
| 20260506140009 | 71 | 112 | 8.0 | 13.0 | 0.00 | 0.00 | 0.00 | 56 | 1012.9 |
| 20260506135405 | 74 | 247 | 13.0 | 14.0 | 0.00 | 0.00 | 0.00 | 51 | |
| 20260506134612 | 74 | 123 | 9.0 | 14.0 | 0.00 | 0.00 | 0.00 | 51 | 1012.8 |
| 20260506134505 | 75 | 202 | 2.0 | 15.0 | 0.00 | 0.00 | 0.00 | 50 | |
| 20260506133605 | 75 | 202 | 2.0 | 15.0 | 0.00 | 0.00 | 0.00 | 50 | |
| 20260506133048 | 74 | 57 | 8.0 | 15.0 | 0.00 | 0.00 | 0.00 | 50 | 1012.9 |
| 20260506132705 | 76 | 112 | 9.0 | 18.0 | 0.00 | 0.00 | 0.00 | 49 | |
| 20260506131805 | 76 | 112 | 9.0 | 18.0 | 0.00 | 0.00 | 0.00 | 49 | |
| 20260506131523 | 75 | 133 | 9.0 | 18.0 | 0.00 | 0.00 | 0.00 | 49 | 1012.8 |
| 20260506130905 | 74 | 67 | 4.0 | 16.0 | 0.00 | 0.00 | 0.00 | 50 | |
| 20260506130121 | 74 | 67 | 3.0 | 16.0 | 0.00 | 0.00 | 0.00 | 50 | 1013.0 |
| 20260506130005 | 74 | 225 | 13.0 | 13.0 | 0.00 | 0.00 | 0.00 | 54 | |
| 20260506125426 | 74 | 225 | 13.0 | 13.0 | 0.00 | 0.00 | 0.00 | 54 | |
| 20260506124536 | 74 | 58 | 7.0 | 13.0 | 0.00 | 0.00 | 0.00 | 54 | 1013.0 |
| 20260506124506 | 74 | 90 | 8.0 | 17.0 | 0.00 | 0.00 | 0.00 | 54 | |
| 20260506123606 | 74 | 90 | 8.0 | 17.0 | 0.00 | 0.00 | 0.00 | 54 | |
| 20260506123113 | 73 | 84 | 9.0 | 17.0 | 0.00 | 0.00 | 0.00 | 54 | 1012.9 |
| 20260506122705 | 76 | 292 | 13.0 | 17.0 | 0.00 | 0.00 | 0.00 | 55 | |
| 20260506121806 | 76 | 292 | 13.0 | 17.0 | 0.00 | 0.00 | 0.00 | 55 | |
| 20260506121553 | 75 | 141 | 11.0 | 17.0 | 0.00 | 0.00 | 0.00 | 55 | 1012.8 |
| 20260506120906 | 76 | 292 | 14.0 | 21.0 | 0.00 | 0.00 | 0.00 | 55 | |
| 20260506120019 | 75 | 141 | 12.0 | 21.0 | 0.00 | 0.00 | 0.00 | 55 | 1012.7 |
| 20260506120005 | 76 | 270 | 10.0 | 18.0 | 0.00 | 0.00 | 0.00 | 56 | |
| 20260506115405 | 76 | 270 | 10.0 | 18.0 | 0.00 | 0.00 | 0.00 | 56 | |
| 20260506114558 | 75 | 124 | 10.0 | 18.0 | 0.00 | 0.00 | 0.00 | 56 | 1012.4 |
| 20260506114505 | 76 | 135 | 11.0 | 19.0 | 0.00 | 0.00 | 0.00 | 58 | |
| 20260506113605 | 76 | 135 | 11.0 | 19.0 | 0.00 | 0.00 | 0.00 | 58 | |
| 20260506113012 | 75 | 118 | 13.0 | 19.0 | 0.00 | 0.00 | 0.00 | 58 | 1012.4 |
| 20260506112706 | 74 | 45 | 7.0 | 17.0 | 0.00 | 0.00 | 0.00 | 60 | |
| 20260506111805 | 74 | 45 | 7.0 | 17.0 | 0.00 | 0.00 | 0.00 | 60 | |
| 20260506111502 | 74 | 114 | 7.0 | 17.0 | 0.00 | 0.00 | 0.00 | 60 | 1012.5 |
| 20260506110906 | 74 | 90 | 11.0 | 18.0 | 0.00 | 0.00 | 0.00 | 63 | |
| 20260506110020 | 74 | 148 | 11.0 | 18.0 | 0.00 | 0.00 | 0.00 | 63 | 1012.6 |
| 20260506110005 | 71 | 315 | 9.0 | 16.0 | 0.00 | 0.00 | 0.00 | 67 | |
| 20260506105407 | 71 | 315 | 9.0 | 16.0 | 0.00 | 0.00 | 0.00 | 67 | |
| 20260506104616 | 70 | 110 | 8.0 | 16.0 | 0.00 | 0.00 | 0.00 | 67 | 1012.8 |
| 20260506104526 | 71 | 157 | 8.0 | 19.0 | 0.00 | 0.00 | 0.00 | 66 | |
| 20260506103605 | 71 | 157 | 8.0 | 19.0 | 0.00 | 0.00 | 0.00 | 66 | |
| 20260506103103 | 70 | 103 | 10.0 | 19.0 | 0.00 | 0.00 | 0.00 | 66 | 1012.9 |
| 20260506102705 | 72 | 315 | 11.0 | 15.0 | 0.00 | 0.00 | 0.00 | 63 | |
| 20260506101826 | 72 | 315 | 11.0 | 15.0 | 0.00 | 0.00 | 0.00 | 63 | |
| 20260506101550 | 71 | 126 | 9.0 | 15.0 | 0.00 | 0.00 | 0.00 | 63 | 1012.9 |
| 20260506100905 | 72 | 180 | 8.0 | 11.0 | 0.00 | 0.00 | 0.00 | 64 | |
| 20260506100012 | 71 | 136 | 5.0 | 11.0 | 0.00 | 0.00 | 0.00 | 64 | 1012.8 |
| 20260506100005 | 72 | 157 | 1.0 | 11.0 | 0.00 | 0.00 | 0.00 | 63 | |
| 20260506095405 | 72 | 157 | 1.0 | 11.0 | 0.00 | 0.00 | 0.00 | 63 | |
| 20260506094600 | 72 | 39 | 4.0 | 11.0 | 0.00 | 0.00 | 0.00 | 63 | 1012.7 |
| 20260506094506 | 73 | 247 | 2.0 | 5.0 | 0.00 | 0.00 | 0.00 | 60 | |
| 20260506093605 | 73 | 247 | 2.0 | 5.0 | 0.00 | 0.00 | 0.00 | 60 | |
| 20260506093018 | 72 | 331 | 2.0 | 5.0 | 0.00 | 0.00 | 0.00 | 60 | 1012.8 |
| 20260506092726 | 72 | 180 | 2.0 | 5.0 | 0.00 | 0.00 | 0.00 | 62 | |
| 20260506091826 | 72 | 180 | 2.0 | 5.0 | 0.00 | 0.00 | 0.00 | 62 | |
| 20260506091502 | 72 | 56 | 2.0 | 5.0 | 0.00 | 0.00 | 0.00 | 62 | 1012.8 |
| 20260506090905 | 72 | 67 | 5.0 | 6.0 | 0.00 | 0.00 | 0.00 | 62 | |
| 20260506090056 | 72 | 323 | 3.0 | 6.0 | 0.00 | 0.00 | 0.00 | 62 | 1012.7 |
| 20260506090005 | 73 | 112 | 2.0 | 9.0 | 0.00 | 0.00 | 0.00 | 62 | |
| 20260506085405 | 73 | 112 | 2.0 | 9.0 | 0.00 | 0.00 | 0.00 | 62 | |
| 20260506084529 | 73 | 5 | 4.0 | 9.0 | 0.00 | 0.00 | 0.00 | 62 | 1012.7 |
| 20260506084505 | 72 | 22 | 0.0 | 9.0 | 0.00 | 0.00 | 0.00 | 65 | |
| 20260506083605 | 72 | 22 | 0.0 | 9.0 | 0.00 | 0.00 | 0.00 | 65 | |
| 20260506083004 | 71 | 289 | 2.0 | 9.0 | 0.00 | 0.00 | 0.00 | 65 | 1012.6 |
| 20260506082705 | 71 | 225 | 2.0 | 8.0 | 0.00 | 0.00 | 0.00 | 68 | |
| 20260506081806 | 71 | 225 | 2.0 | 8.0 | 0.00 | 0.00 | 0.00 | 68 | |
| 20260506081602 | 70 | 106 | 1.0 | 8.0 | 0.00 | 0.00 | 0.00 | 68 | 1012.6 |
| 20260506080905 | 72 | 22 | 4.0 | 9.0 | 0.00 | 0.00 | 0.00 | 69 | |
| 20260506073116 | 68 | 41 | 1.0 | 8.0 | 0.00 | 0.00 | 0.00 | 78 | 1012.6 |
| 20260506072705 | 67 | 67 | 4.0 | 5.0 | 0.00 | 0.00 | 0.00 | 86 | |
| 20260506071826 | 67 | 67 | 4.0 | 5.0 | 0.00 | 0.00 | 0.00 | 86 | |
| 20260506071552 | 66 | 51 | 2.0 | 5.0 | 0.00 | 0.00 | 0.00 | 86 | 1012.9 |
| 20260506070905 | 65 | 157 | 4.0 | 6.0 | 0.00 | 0.00 | 0.00 | 90 | |
| 20260506061805 | 61 | 337 | 3.0 | 6.0 | 0.00 | 0.00 | 0.00 | 95 | |
| 20260506061521 | 60 | 31 | 2.0 | 6.0 | 0.00 | 0.00 | 0.00 | 95 | 1012.9 |
| 20260506060905 | 60 | 180 | 4.0 | 5.0 | 0.00 | 0.00 | 0.00 | 95 | |
| 20260506060108 | 59 | 56 | 3.0 | 5.0 | 0.00 | 0.00 | 0.00 | 95 | 1013.0 |
| 20260506050906 | 55 | 270 | 2.0 | 6.0 | 0.00 | 0.00 | 0.00 | 96 | |
| 20260506044714 | 53 | 40 | 3.0 | 5.0 | 0.00 | 0.00 | 0.00 | 96 | 1012.2 |
| 20260506044505 | 52 | 157 | 2.0 | 3.0 | 0.00 | 0.00 | 0.00 | 95 | |
| 20260506043605 | 52 | 157 | 2.0 | 3.0 | 0.00 | 0.00 | 0.00 | 95 | |
| 20260506043059 | 51 | 135 | 2.0 | 3.0 | 0.00 | 0.00 | 0.00 | 95 | 1012.1 |
| 20260506042726 | 52 | 135 | 1.0 | 2.0 | 0.00 | 0.00 | 0.00 | 95 | |
| 20260506041805 | 52 | 135 | 1.0 | 2.0 | 0.00 | 0.00 | 0.00 | 95 | |
| 20260506041526 | 51 | 134 | 0.0 | 2.0 | 0.00 | 0.00 | 0.00 | 95 | 1012.0 |
| 20260506040926 | 52 | 157 | 0.0 | 2.0 | 0.00 | 0.00 | 0.00 | 94 | |
| 20260506040026 | 52 | 157 | 2.0 | 3.0 | 0.00 | 0.00 | 0.00 | 94 | |
| 20260506040014 | 51 | 135 | 0.0 | 2.0 | 0.00 | 0.00 | 0.00 | 94 | 1011.9 |
| 20260506035405 | 52 | 157 | 2.0 | 3.0 | 0.00 | 0.00 | 0.00 | 94 | |
| 20260506034505 | 52 | 157 | 2.0 | 3.0 | 0.00 | 0.00 | 0.00 | 95 | |
| 20260506034502 | 51 | 135 | 1.0 | 3.0 | 0.00 | 0.00 | 0.00 | 94 | 1011.8 |
| 20260506033626 | 52 | 157 | 2.0 | 3.0 | 0.00 | 0.00 | 0.00 | 95 | |
| 20260506033104 | 51 | 135 | 1.0 | 3.0 | 0.00 | 0.00 | 0.00 | 95 | 1011.9 |
| 20260506032705 | 52 | 180 | 0.0 | 2.0 | 0.00 | 0.00 | 0.00 | 94 | |
| 20260506031805 | 52 | 180 | 0.0 | 2.0 | 0.00 | 0.00 | 0.00 | 94 | |
| 20260506031546 | 52 | 360 | 0.0 | 2.0 | 0.00 | 0.00 | 0.00 | 94 | 1011.8 |
| 20260506030905 | 53 | 180 | 0.0 | 1.0 | 0.00 | 0.00 | 0.00 | 94 | |
| 20260506030021 | 53 | 360 | 0.0 | 1.0 | 0.00 | 0.00 | 0.00 | 94 | 1011.8 |
| 20260506030005 | 53 | 0 | 0.0 | 0.0 | 0.00 | 0.00 | 0.00 | 94 | |
| 20260506025405 | 53 | 0 | 0.0 | 0.0 | 0.00 | 0.00 | 0.00 | 94 | |
| 20260506024526 | 54 | 180 | 0.0 | 2.0 | 0.00 | 0.00 | 0.00 | 94 | |
| 20260506024508 | 53 | 360 | 0.0 | 0.0 | 0.00 | 0.00 | 0.00 | 94 | 1011.7 |
| 20260506023605 | 54 | 180 | 0.0 | 2.0 | 0.00 | 0.00 | 0.00 | 94 | |
| 20260506023113 | 53 | 360 | 0.0 | 2.0 | 0.00 | 0.00 | 0.00 | 94 | 1011.8 |
| 20260506022705 | 54 | 180 | 1.0 | 3.0 | 0.00 | 0.00 | 0.00 | 94 | |
| 20260506021805 | 54 | 180 | 1.0 | 3.0 | 0.00 | 0.00 | 0.00 | 94 | |
| 20260506021559 | 54 | 360 | 0.0 | 3.0 | 0.00 | 0.00 | 0.00 | 94 | 1011.9 |
| 20260506020905 | 54 | 112 | 3.0 | 4.0 | 0.00 | 0.00 | 0.00 | 94 | |
| 20260506020046 | 53 | 5 | 2.0 | 4.0 | 0.00 | 0.00 | 0.00 | 94 | 1012.1 |
| 20260506020005 | 54 | 112 | 2.0 | 5.0 | 0.00 | 0.00 | 0.00 | 93 | |
| 20260506015405 | 54 | 112 | 2.0 | 5.0 | 0.00 | 0.00 | 0.00 | 93 | |
| 20260506014526 | 54 | 360 | 2.0 | 3.0 | 0.00 | 0.00 | 0.00 | 94 | |
| 20260506014524 | 54 | 5 | 3.0 | 5.0 | 0.00 | 0.00 | 0.00 | 93 | 1012.2 |
| 20260506013606 | 54 | 360 | 2.0 | 3.0 | 0.00 | 0.00 | 0.00 | 94 | |
| 20260506013004 | 54 | 208 | 2.0 | 3.0 | 0.00 | 0.00 | 0.00 | 94 | 1012.2 |
| 20260506012705 | 54 | 360 | 2.0 | 3.0 | 0.00 | 0.00 | 0.00 | 93 | |
| 20260506011805 | 54 | 360 | 2.0 | 3.0 | 0.00 | 0.00 | 0.00 | 93 | |
| 20260506011627 | 53 | 208 | 1.0 | 3.0 | 0.00 | 0.00 | 0.00 | 93 | 1012.1 |
| 20260506010905 | 54 | 360 | 2.0 | 3.0 | 0.00 | 0.00 | 0.00 | 92 | |
| 20260506010054 | 53 | 208 | 2.0 | 3.0 | 0.00 | 0.00 | 0.00 | 92 | 1012.3 |
| 20260506010006 | 55 | 360 | 2.0 | 3.0 | 0.00 | 0.00 | 0.00 | 93 | |
| 20260506005405 | 55 | 360 | 2.0 | 3.0 | 0.00 | 0.00 | 0.00 | 93 | |
| 20260506004532 | 54 | 208 | 1.0 | 3.0 | 0.00 | 0.00 | 0.00 | 93 | 1012.3 |
| 20260506004505 | 54 | 360 | 1.0 | 4.0 | 0.00 | 0.00 | 0.00 | 93 | |
| 20260506003626 | 54 | 360 | 1.0 | 4.0 | 0.00 | 0.00 | 0.00 | 93 | |
| 20260506003009 | 54 | 208 | 1.0 | 4.0 | 0.00 | 0.00 | 0.00 | 93 | 1012.4 |
| 20260506002727 | 55 | 360 | 0.0 | 2.0 | 0.00 | 0.00 | 0.00 | 92 | |
| 20260506001805 | 55 | 360 | 0.0 | 2.0 | 0.00 | 0.00 | 0.00 | 92 | |
| 20260506001608 | 55 | 208 | 0.0 | 2.0 | 0.00 | 0.00 | 0.00 | 92 | 1012.5 |
| 20260506000905 | 56 | 360 | 0.0 | 2.0 | 0.00 | 0.00 | 0.00 | 92 | |
| 20260506000054 | 56 | 208 | 0.0 | 2.0 | 0.00 | 0.00 | 0.00 | 92 | 1012.5 |
| 20260506000005 | 57 | 360 | 2.0 | 3.0 | 0.00 | 0.00 | 0.00 | 92 | |
| 20260505235405 | 57 | 360 | 2.0 | 3.0 | 0.00 | 0.00 | 0.00 | 92 | |
| 20260505234558 | 56 | 208 | 1.0 | 3.0 | 0.00 | 0.00 | 0.00 | 92 | 1012.6 |
| 20260505234506 | 57 | 360 | 2.0 | 3.0 | 0.00 | 0.00 | 0.00 | 92 | |
| 20260505233605 | 57 | 360 | 2.0 | 3.0 | 0.00 | 0.00 | 0.00 | 92 | |
| 20260505233018 | 57 | 208 | 1.0 | 3.0 | 0.00 | 0.00 | 0.00 | 92 | 1012.5 |
| 20260505232726 | 57 | 360 | 2.0 | 3.0 | 0.00 | 0.00 | 0.00 | 92 | |
| 20260505231805 | 57 | 360 | 2.0 | 3.0 | 0.00 | 0.00 | 0.00 | 92 | |
| 20260505231509 | 57 | 208 | 2.0 | 3.0 | 0.00 | 0.00 | 0.00 | 92 | 1012.3 |
| 20260505230905 | 57 | 360 | 3.0 | 3.0 | 0.00 | 0.00 | 0.00 | 92 | |
| 20260505230106 | 57 | 208 | 2.0 | 3.0 | 0.00 | 0.00 | 0.00 | 92 | 1012.4 |
| 20260505230026 | 58 | 360 | 2.0 | 3.0 | 0.00 | 0.00 | 0.00 | 91 | |
| 20260505225405 | 58 | 360 | 2.0 | 3.0 | 0.00 | 0.00 | 0.00 | 91 | |
| 20260505224556 | 57 | 208 | 2.0 | 3.0 | 0.00 | 0.00 | 0.00 | 91 | 1012.5 |
| 20260505224526 | 59 | 360 | 2.0 | 4.0 | 0.00 | 0.00 | 0.00 | 91 |